Regional Weather Roundup
Issued by NWS Bismarck, ND

Home | Current Version | Previous Version | Text Only | Print | Product List | Glossary On
Versions: 1 2 3 4 5 6 7 8 9 10 11 12 13 14 15 16 17 18 19 20 21 22 23 24 25 26 27 28 29 30 31 32 33 34 35 36 37 38 39 40 41 42 43 44 45 46 47 48 49 50
000
ASUS43 KBIS 222210
RWRBIS

NWR BROADCAST TEXT
NATIONAL WEATHER SERVICE BISMARCK ND
400 PM CST WED FEB 22 2017

NOTE: "FAIR" INDICATES FEW OR NO CLOUDS BELOW 12,000 FEET WITH NO
SIGNIFICANT WEATHER AND/OR OBSTRUCTIONS TO VISIBILITY.


CITY           SKY/WX    TMP DP  RH WIND       PRES   REMARKS
WILLISTON      CLOUDY    34  25  69 N6        29.94S
MINOT          FAIR      35  26  69 NW8       29.90R
MINOT AFB      FAIR      33  25  72 N10       29.89R
BISMARCK       CLOUDY    35  30  82 N13       29.89R
DICKINSON      CLOUDY    29  26  89 N9        29.87R
GARRISON         N/A     32  28  85 N13       29.89R
HETTINGER ARPT CLOUDY    31  27  85 N13       29.88R
JAMESTOWN      LGT SNOW  32  28  85 N14       29.82R FOG
CARRINGTON     CLOUDY    32  27  80 N20       29.87R
HAZEN          CLOUDY   N/A N/A N/A N10       29.92R
MANDAN         CLOUDY    32  32 100 NE10      29.88R
RUGBY            N/A     32  27  80 N9        29.88R
STANLEY        FAIR      32  27  80 N10       29.92R
TIOGA          FAIR      32  27  80 N8        29.93R
WATFORD CITY   CLOUDY    30  25  80 N6        29.93R
$$

CITY           SKY/WX    TMP DP  RH WIND       PRES   REMARKS
GRAND FORKS    CLOUDY    35  26  69 N16       29.83R
GRAND FORKS AF CLOUDY    34  28  77 N17       29.83R
DEVILS LAKE    CLOUDY    32  25  75 N15       29.87R
FARGO          LGT SNOW  35  33  92 N22       29.77R FOG
CAVALIER         N/A     34  27  75 N10       29.85R
GRAFTON        FAIR      34  30  86 N15       29.86R
GWINNER        CLOUDY    32  32 100 N18       29.78R VSB 3/4
ROLLA          FAIR      30  25  80 NW8       29.87R
$$

CITY           SKY/WX    TMP DP  RH WIND       PRES   REMARKS
ABERDEEN       CLOUDY    35  31  85 N15G24    29.80R
MOBRIDGE       CLOUDY    37  32  82 N12       29.79R
BUFFALO          N/A     34  30  85 N14       29.79R
RAPID CITY     FAIR      50  30  46 N30G44    29.76R
GLASGOW        CLOUDY    31  27  85 CALM      29.95S
SIDNEY         CLOUDY    31  26  82 N9        29.95R
WOLF POINT     CLOUDY    34  24  67 CALM      29.97R
GLENDIVE       FLURRIES  30  27  88 N8        29.93R
MILES CITY     CLOUDY    36  33  89 N9        29.91R
BAKER          LGT SNOW  31  28  89 NW15      29.89R FOG
$$

CITY           SKY/WX    TMP DP  RH WIND       PRES   REMARKS
BILLINGS       LGT SNOW  35  32  88 NE12      29.87R FOG
GREAT FALLS    CLOUDY    37  25  61 N13       29.89S
REGINA         CLOUDY    34  28  80 W7        29.92S
ESTEVAN        CLOUDY    32  28  86 NW10      29.92R
$$




USA.gov is the U.S. government's official web portal to all federal, state and local government web resources and services.